Location: Campillo
(40.8621°N, 4.2488°W)
Time: 12:08:01
(UTC+00:00)

ERS-2 - Pass Details

Date: 11 May 2021
Orbit: 491 x 497 km, 98.5° (Epoch: 13 June)

Event Time Altitude Azimuth Distance (km) Brightness Sun altitude
Rises 20:20:04 0° 4° (N) 2,579 6.2 -10.0°
Reaches altitude 10° 20:22:16 10° 355° (N) 1,692 5.4 -10.4°
Maximum altitude 20:25:35 35° 289° (WNW) 819 3.9 -10.9°
Drops below altitude 10° 20:28:53 10° 223° (SW) 1,679 4.9 -11.4°
Sets 20:31:03 0° 214° (SW) 2,555 5.7 -11.7°
